Location: Paris
(48.6709°N, 2.3750°E)
Time: 06:17:15
(UTC+02:00)

CUBEBUG 2 - Visible Passes

Search period start: 29 June 2022 00:00
Search period end: 09 July 2022 00:00
Orbit: 582 x 695 km, 97.7° (Epoch: 28 June)

Date Brightness Start Highest point End Pass type
(mag) Time Alt. Az. Time Alt. Az. Time Alt. Az.
29 Jun ? 03:32:02 10° ENE 03:33:13 11° E 03:34:24 10° ESE visible
29 Jun ? 05:06:07 10° NNE 05:10:18 82° WNW 05:14:31 10° SSW visible
30 Jun ? 03:53:31 10° NE 03:56:30 19° E 03:59:30 10° SE visible
01 Jul ? 04:15:57 10° NNE 04:19:42 31° E 04:23:29 10° SSE visible
02 Jul ? 04:38:42 10° NNE 04:42:49 53° E 04:47:00 10° S visible
03 Jul ? 03:28:16 10° E 03:28:45 10° E 03:29:14 10° E visible
03 Jul ? 05:01:39 10° NNE 05:05:52 89° W 05:10:09 10° SSW visible
04 Jul ? 03:49:11 10° NE 03:52:02 17° E 03:54:56 10° SE visible
05 Jul ? 04:11:32 10° NE 04:15:14 29° E 04:19:00 10° SSE visible
06 Jul ? 04:34:15 10° NNE 04:38:22 48° E 04:42:34 10° S visible
07 Jul ? 04:57:09 10° NNE 05:01:25 84° ESE 05:05:47 10° SSW visible
08 Jul ? 03:44:49 10° NE 03:47:32 16° E 03:50:18 10° SE visible
